This is the latest recevied weather packets stored in our database for station/object K1BWE-1. If no packets are shown the sender has not sent any weather packets the latest 10 day(s).
| Time | Temp. | Humidity | Pressure | Rain* | Wind** | Luminosity | Snow |
|---|---|---|---|---|---|---|---|
| 1778089193 | 21.67° C | 31% | 1018.1 hPa | 0 mm | - | 723 W/m² | - |
| 1778088891 | 21.11° C | 29% | 1017.9 hPa | 0 mm | - | 778 W/m² | - |
| 1778088587 | 21.11° C | 34% | 1017.8 hPa | 0 mm | - | 760 W/m² | - |
| 1778088285 | 21.11° C | 34% | 1017.8 hPa | 0 mm | - | 737 W/m² | - |
| 1778087981 | 20.56° C | 32% | 1018.1 hPa | 0 mm | - | 751 W/m² | - |
| 1778087678 | 21.11° C | 33% | 1017.8 hPa | 0 mm | - | 756 W/m² | - |
| 1778087376 | 20° C | 37% | 1017.8 hPa | 0 mm | - | 781 W/m² | - |
| 1778087071 | 21.11° C | 31% | 1017.9 hPa | 0 mm | - | 787 W/m² | - |
| 1778086765 | 21.11° C | 34% | 1017.7 hPa | 0 mm | - | 831 W/m² | - |
| 1778086463 | 21.11° C | 34% | 1017.9 hPa | 0 mm | - | 875 W/m² | - |
| 1778086159 | 20.56° C | 33% | 1017.8 hPa | 0 mm | - | 834 W/m² | - |
| 1778085855 | 21.11° C | 33% | 1017.8 hPa | 0 mm | - | 786 W/m² | - |
| 1778085554 | 21.11° C | 33% | 1017.7 hPa | 0 mm | - | 747 W/m² | - |
| 1778085248 | 21.11° C | 33% | 1017.6 hPa | 0 mm | - | 711 W/m² | - |
| 1778084942 | 20.56° C | 33% | 1017.7 hPa | 0 mm | - | 687 W/m² | - |
| 1778084641 | 20.56° C | 32% | 1017.6 hPa | 0 mm | - | 662 W/m² | - |
| 1778084338 | 21.11° C | 34% | 1017.8 hPa | 0 mm | - | 657 W/m² | - |
| 1778084035 | 21.11° C | 35% | 1017.7 hPa | 0 mm | - | 618 W/m² | - |
| 1778083728 | 20.56° C | 34% | 1017.4 hPa | 0 mm | - | 606 W/m² | - |
| 1778083424 | 20° C | 33% | 1017.7 hPa | 0 mm | - | 602 W/m² | - |
| 1778083123 | 20° C | 36% | 1017.9 hPa | 0 mm | - | 563 W/m² | - |
| 1778082818 | 19.44° C | 37% | 1017.6 hPa | 0 mm | - | 510 W/m² | - |
| 1778081691 | 20° C | 34% | 1017.6 hPa | 0 mm | - | 482 W/m² | - |
| 1778081388 | 18.89° C | 37% | 1017.5 hPa | 0 mm | - | 461 W/m² | - |
| 1778081085 | 19.44° C | 37% | 1017.6 hPa | 0 mm | - | 400 W/m² | - |
* Rain latest hour (hover to see other rain measurements)
** Current wind speed in m/s (hover to see current wind gust speed)